Cape Alava 's weather forecast for the week

Current weather in Cape Alava

Weather

Partly cloudy
Cloud cover 3%

Temperature

55°F
Minimum 54°F
Maximum 55°F

Wind

19 mph
Wind gust 45 mph

Humidity

84%
Dew point 50°F
Temp Feels Precip Humidity
00:00am Cloudy 54°F 53°F 0 mm 82%
03:00am Partly cloudy 54°F 51°F 0 mm 80%
06:00am Partly cloudy 55°F 50°F 0 mm 82%
09:00am Partly cloudy 54°F 50°F 0 mm 82%
12:00pm Partly cloudy 54°F 50°F 0 mm 82%
15:00pm Partly cloudy 54°F 49°F 0 mm 82%
18:00pm Partly cloudy 55°F 50°F 0 mm 84%
21:00pm Partly cloudy 55°F 51°F 0 mm 88%
Temp Feels Precip Humidity
00:00am Partly cloudy 54°F 52°F 0 mm 90%
03:00am Partly cloudy 54°F 52°F 0 mm 89%
06:00am Partly cloudy 54°F 52°F 0 mm 89%
09:00am Partly cloudy 55°F 52°F 0 mm 87%
12:00pm Partly cloudy 55°F 50°F 0 mm 88%
15:00pm Partly cloudy 55°F 50°F 0 mm 87%
18:00pm Partly cloudy 55°F 51°F 0 mm 88%
21:00pm Partly cloudy 55°F 51°F 0 mm 89%
Temp Feels Precip Humidity
00:00am Partly cloudy 55°F 52°F 0 mm 90%
03:00am Partly cloudy 55°F 51°F 0 mm 90%
06:00am Partly cloudy 55°F 52°F 0 mm 90%
09:00am Partly cloudy 55°F 52°F 0 mm 88%
12:00pm Partly cloudy 55°F 51°F 0 mm 87%
15:00pm Partly cloudy 55°F 51°F 0 mm 86%
18:00pm Partly cloudy 55°F 52°F 0 mm 81%
21:00pm Partly cloudy 55°F 52°F 0 mm 77%
Temp Feels Precip Humidity
00:00am Partly cloudy 55°F 51°F 0 mm 80%
03:00am Clear 54°F 50°F 0 mm 84%
06:00am Partly cloudy 54°F 49°F 0 mm 85%
09:00am Partly cloudy 54°F 48°F 0 mm 81%
12:00pm Sunny 54°F 48°F 0 mm 79%
15:00pm Sunny 54°F 48°F 0 mm 79%
18:00pm Sunny 54°F 49°F 0 mm 79%
21:00pm Sunny 54°F 49°F 0 mm 79%
Temp Feels Precip Humidity
00:00am Clear 54°F 48°F 0 mm 76%
03:00am Partly cloudy 53°F 47°F 0 mm 75%
06:00am Patchy rain possible 55°F 47°F 0.1 mm 75%
09:00am Patchy rain possible 53°F 50°F 0.3 mm 80%
12:00pm Partly cloudy 55°F 51°F 0 mm 76%
15:00pm Partly cloudy 55°F 50°F 0 mm 78%
18:00pm Partly cloudy 55°F 51°F 0 mm 79%
21:00pm Partly cloudy 54°F 51°F 0 mm 82%
Temp Feels Precip Humidity
00:00am Partly cloudy 54°F 53°F 0 mm 84%
03:00am Partly cloudy 55°F 53°F 0 mm 87%
06:00am Partly cloudy 55°F 54°F 0 mm 88%
09:00am Partly cloudy 55°F 54°F 0 mm 83%
12:00pm Partly cloudy 55°F 52°F 0 mm 85%
15:00pm Partly cloudy 55°F 52°F 0 mm 88%
18:00pm Partly cloudy 55°F 54°F 0 mm 87%
21:00pm Partly cloudy 55°F 55°F 0 mm 87%
Temp Feels Precip Humidity
00:00am Partly cloudy 55°F 55°F 0 mm 88%
03:00am Partly cloudy 56°F 54°F 0 mm 89%
06:00am Partly cloudy 57°F 55°F 0 mm 88%
09:00am Partly cloudy 56°F 55°F 0 mm 83%
12:00pm Partly cloudy 57°F 55°F 0 mm 84%
15:00pm Partly cloudy 57°F 56°F 0 mm 86%
18:00pm Partly cloudy 57°F 57°F 0 mm 86%
21:00pm Partly cloudy 56°F 55°F 0 mm 87%

Save your favorite locations, unlock more tidal information, less advertising and more...

Sign in to Tideschart with your Facebook account in one easy click (it's FREE!)